Lapse_Rate
5.4 5.9 6.0 5.7 5.6 4.8 2.1 2.2 6.4 3.5 3.5 5.9 6.0 6.5 6.5 6.9 6.5 6.5 6.5 6.5 6.5 6.5 6.5 6.5 6.5 6.5 6.5 6.4 6.5 6.5 6.5 6.5 6.5 6.5 6.5 6.5 6.5 6.5 6.5 6.5 6.5 6.5 6.5 6.5
6.0 6.2 6.2 6.0 5.8 5.5 2.4 1.6 3.9 3.6 4.4 6.5 6.5 6.5 6.5 6.5 6.5 6.5 6.5 6.5 6.5 6.5 6.5 6.5 6.5 6.5 6.5 6.4 6.5 6.5 6.5 6.5 6.5 6.5 6.5 6.5 6.5 6.5 6.5 6.5 6.5 6.5 6.5 6.5
6.0 6.5 6.3 6.3 6.0 5.6 2.3 1.8 6.5 3.8 3.7 3.9 6.2 6.5 6.5 6.5 6.5 6.5 6.5 6.5 6.5 6.5 6.5 6.5 6.5 6.5 6.5 6.4 6.5 6.9 6.5 6.5 6.5 6.5 6.5 6.5 6.5 6.5 6.5 6.5 6.5 6.5 6.5 6.5
6.2 6.4 6.5 7.1 6.1 5.7 2.7 -0.2 4.4 2.0 6.5 5.7 6.5 6.4 6.5 6.5 6.5 6.5 6.5 6.5 6.5 6.5 6.5 6.5 6.5 6.5 6.5 6.5 6.6 6.5 6.5 6.5 6.5 6.5 6.5 6.5 6.5 6.5 6.5 6.5 6.5 6.5 6.5 6.5
5.9 6.0 6.3 6.8 6.3 5.7 2.8 0.8 2.2 0.4 0.2 3.1 6.6 6.5 6.5 6.5 6.5 6.5 6.5 6.5 6.5 6.5 6.5 6.5 6.5 6.5 6.5 6.5 6.5 6.5 6.5 6.5 6.5 6.5 6.5 6.5 6.5 6.5 6.5 6.5 6.5 6.5 6.5 6.5
5.7 5.7 5.7 6.4 5.7 5.7 3.1 1.0 1.6 2.5 4.2 6.0 6.5 6.5 6.5 6.5 6.5 6.1 6.0 6.3 6.5 6.5 6.5 6.6 6.5 6.6 6.6 6.5 6.5 6.5 6.5 6.5 6.5 6.5 6.5 6.5 6.5 6.5 6.5 6.5 6.5 6.5 6.5 6.5
5.6 5.7 5.6 5.6 5.9 5.7 4.2 3.1 3.4 3.2 6.5 6.5 6.5 6.5 6.3 6.5 6.5 6.5 6.3 5.9 6.5 6.1 5.0 5.9 6.2 6.3 6.7 6.6 6.5 6.6 6.5 6.5 6.5 6.5 6.5 6.5 6.5 6.5 6.5 6.5 6.5 6.5 6.5 6.5
5.6 5.6 5.5 5.6 5.5 5.1 3.5 2.6 5.3 3.8 6.5 5.4 6.2 6.2 6.5 6.2 5.9 6.3 6.2 5.7 5.4 4.0 5.4 6.5 6.5 6.5 6.5 6.5 6.5 6.5 6.5 6.5 6.5 6.5 6.5 6.5 6.5 6.5 6.5 6.5 6.5 6.5 6.5 6.5
5.7 5.7 5.6 5.6 5.5 5.2 2.7 2.3 3.0 4.6 4.4 6.1 3.2 5.8 4.6 6.5 6.5 6.5 5.8 5.5 5.2 5.8 6.5 6.5 6.5 6.5 6.5 6.5 6.5 6.5 6.5 6.5 6.5 6.5 6.5 6.5 6.5 6.5 6.4 6.5 6.5 6.5 6.5 6.5
5.4 4.8 4.9 5.7 5.6 5.5 2.2 2.6 2.4 4.2 5.6 3.1 3.3 5.3 5.5 3.0 4.5 6.5 4.9 4.7 5.2 5.4 6.5 6.5 6.5 6.5 6.5 6.5 6.5 6.5 6.5 6.5 6.5 6.5 6.5 6.5 6.5 6.5 5.9 6.5 6.5 6.2 5.9 6.0
6.0 6.0 5.8 5.7 5.3 5.6 4.3 4.2 2.4 3.5 5.0 5.0 3.5 3.9 2.4 3.7 3.2 6.5 4.9 5.9 5.5 5.9 6.5 6.5 6.5 6.5 6.5 6.5 6.5 6.5 6.5 6.5 6.5 6.5 6.5 6.5 5.9 6.2 6.5 6.0 5.1 5.3 4.9 4.8
6.4 6.5 6.2 6.1 6.3 6.4 5.5 5.3 2.5 2.9 4.0 5.0 3.1 4.7 4.6 4.5 4.2 2.6 1.9 4.3 5.5 5.9 6.5 6.5 6.5 6.5 6.5 6.5 6.5 6.5 6.5 6.5 6.5 6.5 6.5 6.3 4.6 3.4 1.2 1.3 4.4 5.4 5.1 4.5
8.9 8.8 8.7 8.7 9.0 8.6 7.7 5.1 2.6 3.0 4.6 4.8 4.1 4.9 3.1 2.9 3.2 3.1 5.9 2.1 2.9 3.0 3.0 5.9 6.5 6.5 6.5 6.5 6.5 6.5 6.5 5.2 6.5 6.5 6.5 6.4 5.4 2.7 2.6 2.8 3.6 3.9 4.1 4.4
9.0 8.9 9.1 8.8 8.7 8.5 8.7 6.2 4.0 3.9 4.4 6.5 5.6 3.3 5.1 2.3 2.6 3.2 3.3 1.6 2.2 1.6 4.0 6.0 6.5 6.5 4.8 6.5 6.5 6.5 6.3 6.4 6.5 6.5 6.5 4.8 1.2 -0.1 1.7 3.7 3.6 3.3 2.9 3.7
8.5 8.6 8.3 8.3 8.6 8.5 7.7 5.3 4.5 5.2 5.7 6.5 6.1 2.9 1.9 3.3 3.5 2.9 2.9 3.0 4.1 4.4 5.9 6.5 6.5 5.5 6.2 6.2 6.5 6.5 6.3 6.5 6.5 6.5 6.1 4.5 4.1 -1.8 -2.6 -0.5 2.3 4.0 3.3 3.0
7.8 7.8 7.9 8.3 8.5 8.5 5.4 6.2 3.9 4.8 4.5 5.0 6.5 4.2 3.5 3.7 4.1 4.7 4.3 4.3 3.4 5.0 5.7 6.0 3.4 2.3 5.5 6.5 6.5 6.5 4.8 3.5 4.0 6.2 -0.5 0.9 -1.6 -3.0 -4.2 -2.0 -1.6 -2.1 -1.8 1.3
7.8 7.7 7.9 8.0 8.1 6.5 6.2 4.8 5.3 5.5 4.6 5.7 6.5 6.5 5.4 5.0 5.2 5.6 5.7 5.4 5.6 5.7 6.1 6.4 5.2 4.6 5.9 6.5 6.5 6.4 1.1 0.6 1.4 -3.1 -0.1 3.1 -0.3 1.4 -5.2 -4.4 -4.4 -4.5 -5.9 -5.3
7.7 7.7 7.8 7.5 6.1 5.3 4.1 3.2 7.0 5.4 5.6 4.9 6.5 6.5 6.2 5.2 6.3 6.5 5.8 6.2 6.1 6.2 5.5 5.2 6.5 5.8 6.3 6.5 6.2 1.7 -0.5 -2.3 -1.0 -1.2 -3.4 -1.7 -2.6 -3.8 -5.1 -6.9 -6.1 -4.0 -4.3 -5.0
7.6 6.9 6.2 3.5 3.4 4.3 5.3 5.7 5.5 4.0 4.6 4.9 6.0 6.5 6.5 5.6 6.4 6.2 6.2 5.8 6.5 6.2 6.5 6.5 6.5 6.5 6.5 6.5 4.3 1.3 0.6 1.4 0.8 -4.5 -5.5 -4.7 -1.9 -0.8 -2.2 -4.5 -4.7 -3.0 -3.7 -5.2
6.3 3.9 2.2 0.2 4.5 6.4 6.0 4.6 5.9 5.9 5.4 5.7 6.5 4.7 6.5 5.6 5.1 6.3 6.6 6.6 6.5 6.5 6.5 6.5 6.5 6.5 4.5 2.5 -0.4 -3.0 -2.8 -3.6 -3.6 2.3 2.1 -1.0 -0.3 -1.1 -1.9 -3.1 -4.1 -3.4 -3.0 -4.2
4.1 2.7 2.9 2.8 4.8 4.1 2.1 4.4 5.5 4.9 6.5 5.5 5.2 5.3 6.5 5.4 6.5 6.5 6.7 6.5 6.5 6.5 6.5 6.5 6.5 6.5 6.1 2.9 2.1 -0.7 -2.8 -4.8 -4.7 -4.7 -3.9 -4.5 -2.2 -1.5 -2.2 -1.2 -2.3 -2.2 -2.1 -1.6
4.5 3.3 3.6 2.9 1.2 1.3 6.1 6.5 6.1 6.5 6.5 5.9 6.2 6.4 6.1 5.1 5.3 6.5 6.6 6.5 6.5 6.5 6.1 6.5 6.5 6.5 4.3 2.2 1.2 0.3 -1.4 -2.6 -2.5 -3.6 -3.0 -2.8 -2.2 -4.0 -3.7 -4.1 -3.4 -3.2 -2.3 -1.9
3.4 2.7 0.8 2.3 2.9 6.5 6.5 6.5 6.5 6.5 5.6 4.3 5.8 6.5 6.0 5.6 5.9 6.5 6.5 6.5 6.5 6.5 6.5 6.5 6.5 5.9 4.4 1.7 -0.5 0.4 -0.2 -0.7 -1.0 -0.9 -1.6 -1.7 -2.1 -2.1 -3.2 -1.7 -1.9 -2.4 -1.2 -2.3
4.9 3.5 6.5 6.5 6.5 6.5 6.5 6.5 6.5 3.7 4.3 5.2 5.8 6.5 6.5 5.6 6.5 6.5 6.5 6.5 6.5 6.5 6.5 6.5 6.5 5.5 4.4 3.3 1.8 0.6 1.0 0.8 1.0 0.5 0.1 -0.7 -1.3 -2.1 -1.7 -2.4 -2.7 -1.1 -0.6 -0.6
5.0 3.4 6.5 6.5 5.6 3.5 1.8 1.0 2.5 3.7 4.5 4.7 5.9 5.9 5.8 6.5 6.5 6.5 6.5 6.5 6.5 6.5 6.5 6.5 6.3 5.2 4.7 4.5 4.2 3.7 2.8 2.3 1.8 1.8 1.6 0.5 -0.3 -2.3 -1.2 -1.5 -1.4 -0.9 -0.3 0.0
3.9 2.5 5.6 6.0 6.3 5.9 3.3 2.4 2.2 1.9 3.3 3.4 3.2 6.5 6.5 6.5 6.5 6.5 6.5 6.5 6.5 6.5 6.5 7.0 6.6 6.1 5.5 5.1 4.9 4.4 3.9 3.4 3.2 3.2 3.2 2.5 1.7 1.3 0.7 0.9 0.1 -0.3 -0.6 -0.8
5.6 5.0 4.3 4.3 4.4 4.2 2.7 0.4 0.3 -0.4 3.1 6.5 6.4 6.5 6.5 6.5 6.5 6.5 6.5 6.5 6.5 6.8 6.9 6.4 5.8 5.4 5.0 4.9 5.1 5.0 4.8 4.0 3.5 3.2 3.2 3.3 3.1 3.1 2.4 1.2 1.2 1.2 0.3 -0.3
Wind_Speed
14 17 16 17 19 20 6 2 2 0 2 1 1 1 0 2 2 2 0 1 0 2 1 3 3 5 4 2 1 2 0 1 3 7 3 5 6 6 5 3 3 1 1 4
16 17 14 13 16 15 2 1 1 2 1 1 2 2 2 1 3 4 2 2 2 2 3 2 4 4 2 1 1 2 2 3 0 4 2 1 5 5 5 3 2 4 4 4
17 16 14 11 13 14 2 2 2 2 2 1 3 2 3 2 2 2 4 3 1 1 3 4 3 2 2 1 1 1 1 2 4 6 4 3 6 6 6 5 4 4 7 4
18 16 13 9 9 14 3 2 4 3 3 3 2 2 2 1 3 2 2 3 4 5 3 2 4 2 2 2 4 1 1 4 3 5 7 5 4 7 10 8 5 8 3 8
19 17 14 10 5 7 2 2 2 2 1 1 3 2 5 8 4 6 3 4 5 6 5 4 3 2 2 1 2 0 3 4 3 5 5 6 6 6 6 8 5 11 3 13
20 17 16 13 7 2 1 0 2 3 1 0 3 5 6 6 5 3 3 7 5 5 7 7 4 4 3 3 0 1 2 2 2 5 2 4 6 13 13 5 5 7 9 14
22 20 18 16 13 11 3 3 2 3 4 3 5 3 6 8 6 4 2 3 5 2 6 5 2 4 7 7 7 4 2 2 3 2 1 5 4 1 2 14 12 8 11 3
22 22 21 20 19 19 3 3 3 3 4 3 4 4 4 0 2 5 5 5 2 7 4 2 3 2 3 5 6 9 5 2 3 3 3 6 4 3 5 7 7 0 8 9
16 21 23 24 23 24 4 3 3 3 2 6 6 4 4 4 3 2 1 2 1 1 2 2 4 4 4 3 2 3 6 2 1 3 3 5 3 1 1 2 4 1 1 2
16 17 20 17 24 25 7 4 7 3 3 5 6 4 5 5 2 2 1 4 1 2 2 2 3 4 1 4 7 5 4 3 9 8 4 7 6 4 0 4 3 2 1 2
18 19 19 18 23 18 11 4 15 8 5 4 8 8 6 3 3 4 3 3 2 2 2 3 4 4 4 2 3 6 7 7 4 4 1 7 5 3 6 4 1 2 3 2
17 18 18 17 19 20 25 5 6 3 2 3 3 6 7 9 12 6 3 2 4 5 2 1 0 3 0 1 3 2 2 6 5 8 6 3 5 4 3 3 1 1 3 3
17 17 17 18 19 18 12 2 3 2 2 2 1 8 6 3 6 5 6 2 4 3 3 3 1 4 3 3 5 1 4 3 3 2 5 7 6 4 4 6 6 4 4 4
18 18 19 17 17 15 12 2 3 2 1 3 2 3 2 4 1 2 2 6 5 4 1 2 2 2 2 3 1 4 3 5 5 5 7 6 6 5 5 3 3 3 5 4
17 18 18 19 17 16 11 4 6 8 5 2 2 1 5 5 0 4 4 4 6 2 2 2 3 1 2 0 2 4 7 12 8 9 11 5 7 4 3 3 2 3 3 4
20 18 19 19 18 12 3 3 3 4 2 2 2 2 4 4 4 4 5 4 3 3 4 3 3 1 2 3 3 8 13 9 9 11 3 6 2 0 2 3 3 2 3 5
20 17 16 14 12 0 2 4 2 8 2 2 1 2 2 3 2 1 2 2 1 2 3 3 2 1 3 2 5 1 4 5 3 1 4 4 3 4 1 1 3 4 3 3
20 14 8 8 5 3 3 3 5 12 2 2 2 0 0 1 1 2 1 1 1 1 2 2 2 1 0 5 4 5 4 4 4 4 2 2 2 1 2 2 3 3 4 4
13 1 4 4 4 2 2 13 5 3 2 3 2 4 3 1 2 1 0 2 2 0 2 2 3 2 5 4 4 4 5 3 5 3 4 4 1 4 4 2 2 2 4 2
10 5 3 3 0 6 5 3 1 1 1 1 2 1 2 3 1 1 2 1 2 3 3 3 3 4 2 7 3 4 7 6 6 3 4 3 3 3 4 3 3 2 2 2
2 2 1 1 4 2 3 2 2 2 3 2 1 2 2 2 2 2 2 3 3 2 2 3 2 3 3 7 6 5 7 4 4 3 3 2 2 0 3 4 3 3 2 2
5 5 3 2 3 3 3 1 2 1 2 2 2 1 1 1 2 1 2 2 2 3 2 2 3 3 3 6 6 7 7 7 5 3 3 4 3 2 1 2 4 3 3 2
3 3 4 3 2 3 3 2 3 1 1 1 1 1 1 1 1 1 1 3 2 4 1 3 2 4 4 6 4 5 6 7 5 7 5 5 4 5 5 4 4 3 5 4
2 4 1 4 1 4 4 3 3 3 2 3 2 1 0 0 1 1 2 2 2 2 1 3 2 3 5 4 3 4 6 7 7 6 7 7 7 6 7 6 5 5 7 6
3 3 4 4 2 0 2 1 2 0 2 2 2 2 1 1 2 1 2 1 2 4 2 2 2 3 3 4 5 5 6 6 6 5 5 6 6 5 6 6 6 7 7 7
3 3 3 1 2 2 1 2 1 2 2 1 2 2 2 0 2 2 3 3 3 1 1 2 1 3 4 3 3 4 4 5 5 6 6 6 7 6 4 6 8 7 6 6
3 2 0 2 2 2 2 2 3 1 2 1 3 2 4 2 2 1 2 0 2 2 2 3 4 4 4 4 4 4 4 5 5 5 6 5 5 6 7 9 7 6 6 5
Wind_Direction
309 310 325 336 339 343 30 1 325 149 139 105 120 226 235 297 141 88 79 36 80 224 235 286 270 244 218 145 177 161 190 12 239 215 234 195 171 210 188 127 256 178 152 279
296 301 316 330 337 358 333 318 252 25 10 244 264 276 248 256 165 151 180 130 173 261 266 262 213 257 7 127 158 194 156 235 207 359 294 122 212 189 190 135 111 221 142 254
285 292 306 318 329 339 96 68 339 330 55 343 177 199 232 231 264 137 158 116 240 206 246 223 294 276 287 234 240 211 69 270 221 197 210 152 195 186 189 175 185 179 215 267
276 284 292 299 313 332 113 59 256 191 260 286 157 142 197 144 256 245 212 121 224 149 293 263 237 247 294 298 332 28 191 240 227 240 262 292 260 196 184 200 198 202 166 213
272 271 277 278 276 334 104 157 118 353 256 178 127 208 233 191 243 155 244 168 174 164 184 231 261 353 224 255 346 248 334 284 341 297 286 234 260 268 259 228 211 248 189 262
262 258 259 258 220 107 195 222 5 107 255 297 94 218 212 215 164 252 186 170 137 203 217 222 222 228 297 295 222 219 187 233 173 258 335 344 289 226 223 221 211 177 215 248
256 255 249 245 220 191 163 190 120 100 262 176 208 225 198 200 212 184 214 174 145 198 111 121 159 249 240 225 230 222 244 227 195 246 357 226 242 333 195 218 245 232 270 224
259 255 249 242 228 200 166 158 150 175 246 193 264 221 212 122 319 196 179 201 215 131 101 123 293 221 248 225 214 205 215 298 274 224 222 313 298 192 174 172 257 358 243 298
291 260 253 249 236 214 165 179 144 164 145 229 200 170 184 194 193 348 225 59 93 163 146 117 205 233 198 222 134 192 183 231 251 331 243 229 278 345 8 137 294 67 181 265
325 357 7 286 250 233 174 197 162 127 209 242 153 187 184 143 104 140 233 170 104 339 124 166 194 240 180 207 170 166 164 185 217 228 261 289 246 214 277 111 225 339 324 294
324 330 334 320 359 313 203 208 188 162 193 239 187 178 148 127 152 160 180 88 313 46 167 169 221 208 216 141 191 178 174 163 193 171 173 272 150 79 166 214 277 289 314 321
320 325 323 314 337 317 341 246 192 144 155 268 220 217 195 193 179 150 180 206 160 164 120 239 178 241 82 170 252 320 246 194 178 194 210 228 209 199 234 162 177 271 301 319
309 311 313 315 321 308 335 320 120 46 315 240 174 227 222 183 186 173 169 253 166 194 195 149 199 223 138 194 234 192 249 165 212 77 255 234 244 244 215 202 210 223 224 236
307 309 306 306 303 312 305 203 175 94 167 262 231 334 44 353 152 161 106 129 92 88 97 111 190 190 126 225 243 206 191 139 206 262 281 297 275 234 231 233 273 268 279 230
294 300 303 301 302 293 305 239 193 191 188 302 315 1 6 340 346 101 96 100 118 114 132 175 209 225 122 122 19 246 183 211 215 246 239 192 238 202 161 169 230 277 232 249
293 293 296 299 303 327 6 315 7 252 112 177 239 32 0 11 43 73 117 122 107 136 159 199 218 237 159 228 240 256 216 226 226 247 189 190 191 284 184 207 238 246 276 260
289 287 294 309 311 164 167 216 167 130 57 252 164 217 357 359 73 48 39 47 144 127 160 198 178 195 178 226 234 35 221 248 279 100 101 309 188 242 27 278 327 321 292 287
297 288 299 311 332 354 319 314 269 137 166 213 231 127 239 212 139 101 299 129 108 172 177 102 148 122 118 253 269 301 314 284 286 260 330 50 96 77 338 339 337 342 314 321
296 146 51 55 40 30 320 346 75 74 149 201 126 155 222 197 100 109 222 116 144 62 210 203 150 188 225 260 331 332 327 315 304 1 62 50 6 306 305 307 307 241 277 275
127 61 56 350 137 350 356 348 359 280 250 268 130 62 175 120 170 163 153 129 170 189 211 137 206 253 357 21 316 301 327 333 342 1 333 3 359 8 325 278 281 243 253 307
90 129 166 250 334 53 32 360 92 324 336 18 94 107 140 253 157 152 224 165 158 195 217 196 236 268 301 344 339 339 338 333 326 283 279 261 217 255 342 0 330 271 260 265
156 122 97 38 41 34 64 292 324 94 260 7 107 106 102 208 293 113 165 172 142 221 112 83 272 273 307 334 339 341 345 348 357 17 6 351 29 351 321 349 357 352 315 331
66 56 58 71 317 31 143 260 298 298 207 192 150 106 112 130 237 71 158 167 172 117 93 232 249 315 343 337 337 339 351 10 21 22 36 35 16 28 28 18 10 27 48 22
118 140 184 164 225 243 194 183 197 224 132 143 144 110 121 18 99 138 117 50 104 61 327 249 303 325 333 346 345 11 348 18 26 21 39 48 39 18 16 12 6 33 39 23
148 118 201 197 210 119 214 169 84 236 126 123 114 66 116 106 101 51 104 74 249 206 239 346 349 356 1 2 7 6 22 20 18 22 37 43 41 37 34 15 21 32 35 36
113 78 92 17 88 266 7 144 212 214 131 57 58 116 64 245 122 99 206 166 224 94 18 0 37 46 33 24 23 24 28 41 42 33 31 38 40 35 9 32 35 36 37 43
145 272 179 132 93 159 162 137 214 202 91 177 109 113 205 87 63 198 21 100 48 6 41 27 23 38 23 17 34 36 41 46 51 52 38 28 27 42 43 39 14 27 34 42